This is the latest recevied weather packets stored in our database for station/object HK6RM-16. If no packets are shown the sender has not sent any weather packets the latest 10 day(s).
| Time | Temp. | Humidity | Pressure | Rain* | Wind** | Luminosity | Snow |
|---|---|---|---|---|---|---|---|
| 1787756747 | 18.33° C | 72% | 1014 hPa | 0 mm | - | - | - |
| 1787755786 | 18.33° C | 72% | 1014 hPa | 0 mm | - | - | - |
| 1787754826 | 17.22° C | 68% | 1014 hPa | 0 mm | - | - | - |
| 1787753866 | 17.22° C | 68% | 1014 hPa | 0 mm | - | - | - |
| 1787752905 | 17.22° C | 68% | 1014 hPa | 0 mm | - | - | - |
| 1787751945 | 17.22° C | 68% | 1014 hPa | 0 mm | - | - | - |
| 1787750984 | 17.78° C | 68% | 1015 hPa | 0 mm | - | - | - |
| 1787750024 | 15° C | 77% | 1015 hPa | 0 mm | - | - | - |
| 1787749063 | 15.56° C | 77% | 1015 hPa | 0 mm | - | - | - |
| 1787748103 | 12.78° C | 77% | 1015 hPa | 0 mm | - | - | - |
| 1787747142 | 13.33° C | 77% | 1015 hPa | 0 mm | - | - | - |
| 1787746182 | 13.89° C | 77% | 1015 hPa | 0 mm | - | - | - |
| 1787745221 | 14.44° C | 77% | 1015 hPa | 0 mm | - | - | - |
| 1787744261 | 10° C | 69% | 1015 hPa | 0 mm | - | - | - |
| 1787743300 | 10° C | 69% | 1015 hPa | 0 mm | - | - | - |
| 1787742340 | 10° C | 69% | 1015 hPa | 0 mm | - | - | - |
| 1787741380 | 10° C | 69% | 1015 hPa | 0 mm | - | - | - |
| 1787740419 | 10° C | 69% | 1015 hPa | 0 mm | - | - | - |
| 1787739459 | 10.56° C | 69% | 1015 hPa | 0 mm | - | - | - |
| 1787738498 | 10.56° C | 69% | 1015 hPa | 0 mm | - | - | - |
| 1787737538 | 10.56° C | 69% | 1015 hPa | 0 mm | - | - | - |
| 1787736577 | 10.56° C | 69% | 1015 hPa | 0 mm | - | - | - |
| 1787735617 | 10° C | 68% | 1015 hPa | 0 mm | - | - | - |
| 1787734657 | 10° C | 68% | 1015 hPa | 0 mm | - | - | - |
| 1787733696 | 10° C | 69% | 1015 hPa | 0 mm | - | - | - |
* Rain latest hour (hover to see other rain measurements)
** Current wind speed in m/s (hover to see current wind gust speed)